User: anonymous   Login
Location: Columbia
(38.9520°N, 92.3340°W)
Time: 17:06:21
(UTC-06:00)
Language:

Meteor 1-4 Rocket - Orbit

View from above orbital plane
View from above orbital plane
View from above satellite
View from above satellite

Ground track
Ground track

The orbit data is extracted from the following two-line orbital elements,

1 04394U 70037B   16045.55040634  .00004147  00000-0  15464-3 0  9999
2 04394  81.2416 227.8650 0042597 351.8740   8.1798 15.26306742490180
Epoch (UTC): 14 February 2016 13:12:35
Eccentricity: 0.0042597
inclination: 81.2416°
perigee height: 457 km
apogee height: 516 km
right ascension of ascending node: 227.8650°
argument of perigee: 351.8740°
revolutions per day: 15.26306742
mean anomaly at epoch: 8.1798°
orbit number at epoch: 49018

The dashed part of the orbit path shows where the satellite is in the earth's shadow,  

DLR